Time,TemperatureF,DewpointF,PressureIn,WindDirection,WindDirectionDegrees,WindSpeedMPH,WindSpeedGustMPH,Humidity,HourlyPrecipIn,Conditions,Clouds,dailyrainin,SoftwareType,DateUTC
2013-01-19 00:02:00,35.0,30.0,29.78,WSW,240,1.0,6.0,83,0.00,,,0.00,,2013-01-19 06:02:00,
2013-01-19 00:12:00,35.0,30.0,29.78,WSW,240,1.0,6.0,83,0.00,,,0.00,,2013-01-19 06:12:00,
2013-01-19 00:22:00,36.0,31.0,29.78,SW,222,1.0,8.0,83,0.00,,,0.00,,2013-01-19 06:22:00,
2013-01-19 00:32:00,36.0,31.0,29.78,SW,215,1.0,7.0,83,0.00,,,0.00,,2013-01-19 06:32:00,
2013-01-19 00:43:00,36.0,31.0,29.78,SW,215,1.0,7.0,83,0.00,,,0.00,,2013-01-19 06:43:00,
2013-01-19 00:53:00,36.0,31.0,29.78,SSW,195,2.0,6.0,83,0.00,,,0.00,,2013-01-19 06:53:00,
2013-01-19 01:02:00,35.0,30.0,29.78,SSW,203,1.0,5.0,83,0.00,,,0.00,,2013-01-19 07:02:00,
2013-01-19 01:12:00,35.0,30.0,29.78,SSW,203,1.0,5.0,83,0.00,,,0.00,,2013-01-19 07:12:00,
2013-01-19 01:22:00,35.0,31.0,29.78,South,182,0.0,2.0,84,0.00,,,0.00,,2013-01-19 07:22:00,
2013-01-19 01:32:00,35.0,31.0,29.78,SSW,196,0.0,5.0,84,0.00,,,0.00,,2013-01-19 07:32:00,
2013-01-19 01:42:00,35.0,31.0,29.78,SSW,196,0.0,5.0,84,0.00,,,0.00,,2013-01-19 07:42:00,
2013-01-19 01:53:00,34.0,30.0,29.79,SSW,196,1.0,4.0,84,0.00,,,0.00,,2013-01-19 07:53:00,
2013-01-19 02:02:00,34.0,30.0,29.79,SW,214,0.0,5.0,85,0.00,,,0.00,,2013-01-19 08:02:00,
2013-01-19 02:12:00,34.0,30.0,29.79,SW,214,0.0,5.0,85,0.00,,,0.00,,2013-01-19 08:12:00,
2013-01-19 02:22:00,35.0,31.0,29.80,SSW,198,2.0,5.0,85,0.00,,,0.00,,2013-01-19 08:22:00,
2013-01-19 02:32:00,35.0,31.0,29.80,SSW,198,0.0,2.0,85,0.00,,,0.00,,2013-01-19 08:32:00,
2013-01-19 02:42:00,35.0,31.0,29.80,SSW,198,0.0,2.0,85,0.00,,,0.00,,2013-01-19 08:42:00,
2013-01-19 02:53:00,34.0,30.0,29.80,SSW,198,1.0,2.0,85,0.00,,,0.00,,2013-01-19 08:53:00,
2013-01-19 03:02:00,34.0,30.0,29.80,SSW,198,0.0,4.0,86,0.00,,,0.00,,2013-01-19 09:02:00,
2013-01-19 03:12:00,34.0,30.0,29.80,SSW,198,0.0,4.0,86,0.00,,,0.00,,2013-01-19 09:12:00,
2013-01-19 03:22:00,34.0,30.0,29.80,SSW,198,1.0,4.0,86,0.00,,,0.00,,2013-01-19 09:22:00,
2013-01-19 03:32:00,34.0,30.0,29.79,SSW,199,0.0,2.0,86,0.00,,,0.00,,2013-01-19 09:32:00,
2013-01-19 03:42:00,34.0,30.0,29.79,SSW,199,0.0,2.0,86,0.00,,,0.00,,2013-01-19 09:42:00,
2013-01-19 03:53:00,34.0,30.0,29.79,SSW,199,0.0,2.0,86,0.00,,,0.00,,2013-01-19 09:53:00,
2013-01-19 04:02:00,34.0,31.0,29.80,SSW,199,0.0,4.0,87,0.00,,,0.00,,2013-01-19 10:02:00,
2013-01-19 04:12:00,34.0,31.0,29.80,SSW,199,0.0,4.0,87,0.00,,,0.00,,2013-01-19 10:12:00,
2013-01-19 04:22:00,34.0,31.0,29.80,SSW,199,0.0,2.0,87,0.00,,,0.00,,2013-01-19 10:22:00,
2013-01-19 04:32:00,34.0,31.0,29.79,SSW,199,0.0,1.0,87,0.00,,,0.00,,2013-01-19 10:32:00,
2013-01-19 04:42:00,34.0,31.0,29.79,SSW,199,0.0,1.0,87,0.00,,,0.00,,2013-01-19 10:42:00,
2013-01-19 04:53:00,34.0,31.0,29.79,South,189,0.0,2.0,87,0.00,,,0.00,,2013-01-19 10:53:00,
2013-01-19 05:02:00,34.0,31.0,29.78,South,181,2.0,5.0,87,0.00,,,0.00,,2013-01-19 11:02:00,
2013-01-19 05:12:00,34.0,31.0,29.78,South,181,2.0,5.0,87,0.00,,,0.00,,2013-01-19 11:12:00,
2013-01-19 06:48:00,34.0,31.0,29.77,SSW,196,0.0,2.0,88,0.00,,,0.00,,2013-01-19 12:48:00,
2013-01-19 06:53:00,34.0,31.0,29.77,SSE,168,0.0,5.0,88,0.00,,,0.00,,2013-01-19 12:53:00,
2013-01-19 07:03:00,34.0,31.0,29.77,SSW,197,1.0,5.0,88,0.00,,,0.00,,2013-01-19 13:03:00,
2013-01-19 07:12:00,34.0,31.0,29.77,SSW,197,1.0,5.0,88,0.00,,,0.00,,2013-01-19 13:12:00,
2013-01-19 07:22:00,34.0,31.0,29.77,South,176,3.0,5.0,88,0.00,,,0.00,,2013-01-19 13:22:00,
2013-01-19 07:33:00,34.0,31.0,29.76,South,184,1.0,6.0,88,0.00,,,0.00,,2013-01-19 13:33:00,
2013-01-19 07:42:00,34.0,31.0,29.76,South,184,1.0,6.0,88,0.00,,,0.00,,2013-01-19 13:42:00,
2013-01-19 07:53:00,34.0,31.0,29.75,South,177,1.0,4.0,88,0.00,,,0.00,,2013-01-19 13:53:00,
2013-01-19 08:02:00,34.0,31.0,29.75,WSW,249,2.0,6.0,88,0.00,,,0.00,,2013-01-19 14:02:00,
2013-01-19 08:12:00,34.0,31.0,29.75,WSW,249,2.0,6.0,88,0.00,,,0.00,,2013-01-19 14:12:00,
2013-01-19 08:23:00,34.0,31.0,29.75,South,184,1.0,9.0,87,0.00,,,0.00,,2013-01-19 14:23:00,
2013-01-19 08:33:00,35.0,32.0,29.75,SE,127,0.0,6.0,87,0.00,,,0.00,,2013-01-19 14:33:00,
2013-01-19 08:43:00,35.0,32.0,29.75,SE,127,0.0,6.0,87,0.00,,,0.00,,2013-01-19 14:43:00,
2013-01-19 08:53:00,35.0,32.0,29.75,South,183,5.0,7.0,87,0.00,,,0.00,,2013-01-19 14:53:00,
2013-01-19 09:03:00,35.0,32.0,29.75,SSW,194,4.0,8.0,87,0.00,,,0.00,,2013-01-19 15:03:00,
2013-01-19 09:12:00,35.0,32.0,29.75,SSW,194,4.0,8.0,87,0.00,,,0.00,,2013-01-19 15:12:00,
2013-01-19 09:23:00,35.0,32.0,29.74,South,180,3.0,6.0,87,0.00,,,0.00,,2013-01-19 15:23:00,
2013-01-19 09:33:00,35.0,31.0,29.74,SSW,192,4.0,8.0,86,0.00,,,0.00,,2013-01-19 15:33:00,
2013-01-19 09:43:00,35.0,31.0,29.74,SSW,192,4.0,8.0,86,0.00,,,0.00,,2013-01-19 15:43:00,
2013-01-19 09:53:00,36.0,32.0,29.74,SE,133,5.0,8.0,86,0.00,,,0.00,,2013-01-19 15:53:00,
2013-01-19 10:03:00,36.0,32.0,29.74,South,187,8.0,10.0,85,0.00,,,0.00,,2013-01-19 16:03:00,
2013-01-19 10:13:00,36.0,32.0,29.74,South,187,8.0,10.0,85,0.00,,,0.00,,2013-01-19 16:13:00,
2013-01-19 10:23:00,36.0,32.0,29.72,South,191,7.0,14.0,85,0.00,,,0.00,,2013-01-19 16:23:00,
2013-01-19 10:33:00,37.0,33.0,29.71,South,190,6.0,10.0,84,0.00,,,0.00,,2013-01-19 16:33:00,
2013-01-19 10:43:00,37.0,33.0,29.71,South,190,6.0,10.0,84,0.00,,,0.00,,2013-01-19 16:43:00,
2013-01-19 10:54:00,37.0,32.0,29.70,South,190,7.0,13.0,83,0.00,,,0.00,,2013-01-19 16:54:00,
2013-01-19 11:02:00,37.0,32.0,29.70,South,179,7.0,12.0,83,0.00,,,0.00,,2013-01-19 17:02:00,
2013-01-19 11:28:00,37.0,32.0,29.68,South,188,6.0,14.0,83,0.00,,,0.00,,2013-01-19 17:28:00,
2013-01-19 11:47:00,37.0,32.0,29.67,South,179,8.0,13.0,83,0.00,,,0.00,,2013-01-19 17:47:00,
2013-01-19 11:54:00,38.0,33.0,29.67,WSW,250,4.0,12.0,82,0.00,,,0.00,,2013-01-19 17:54:00,
2013-01-19 12:09:00,38.0,33.0,29.66,SSW,207,6.0,15.0,81,0.00,,,0.00,,2013-01-19 18:09:00,
2013-01-19 12:25:00,39.0,33.0,29.65,South,186,7.0,12.0,80,0.00,,,0.00,,2013-01-19 18:25:00,
2013-01-19 12:34:00,40.0,34.0,29.64,SSW,194,9.0,16.0,78,0.00,,,0.00,,2013-01-19 18:34:00,
2013-01-19 12:45:00,40.0,34.0,29.64,SSW,194,9.0,16.0,78,0.00,,,0.00,,2013-01-19 18:45:00,
2013-01-19 12:59:00,40.0,34.0,29.64,SSE,160,6.0,14.0,78,0.00,,,0.00,,2013-01-19 18:59:00,
2013-01-19 13:18:00,40.0,34.0,29.63,South,182,8.0,15.0,78,0.00,,,0.00,,2013-01-19 19:18:00,
2013-01-19 13:28:00,40.0,34.0,29.63,South,184,8.0,14.0,78,0.00,,,0.00,,2013-01-19 19:28:00,
2013-01-19 13:38:00,41.0,34.0,29.63,SW,216,7.0,12.0,77,0.00,,,0.00,,2013-01-19 19:38:00,
2013-01-19 13:45:00,41.0,34.0,29.63,SW,216,7.0,12.0,77,0.00,,,0.00,,2013-01-19 19:45:00,
2013-01-19 13:57:00,42.0,34.0,29.62,South,187,8.0,14.0,74,0.00,,,0.00,,2013-01-19 19:57:00,
2013-01-19 14:09:00,42.0,34.0,29.62,South,173,9.0,12.0,73,0.00,,,0.00,,2013-01-19 20:09:00,
2013-01-19 14:18:00,42.0,34.0,29.62,South,173,9.0,12.0,73,0.00,,,0.00,,2013-01-19 20:18:00,
2013-01-19 14:25:00,42.0,34.0,29.60,SSW,197,9.0,18.0,73,0.00,,,0.00,,2013-01-19 20:25:00,
2013-01-19 14:37:00,42.0,34.0,29.60,SW,217,6.0,12.0,73,0.00,,,0.00,,2013-01-19 20:37:00,
2013-01-19 14:45:00,42.0,34.0,29.60,SW,217,6.0,12.0,73,0.00,,,0.00,,2013-01-19 20:45:00,
2013-01-19 14:58:00,43.0,35.0,29.59,SW,233,4.0,11.0,72,0.00,,,0.00,,2013-01-19 20:58:00,
2013-01-19 15:05:00,42.0,34.0,29.59,SW,236,3.0,8.0,73,0.00,,,0.00,,2013-01-19 21:05:00,
2013-01-19 15:14:00,42.0,34.0,29.59,SW,236,3.0,8.0,73,0.00,,,0.00,,2013-01-19 21:14:00,
2013-01-19 15:25:00,41.0,34.0,29.60,SSW,195,4.0,9.0,75,0.00,,,0.00,,2013-01-19 21:25:00,
2013-01-19 15:40:00,42.0,35.0,29.61,SW,233,5.0,11.0,75,0.00,,,0.00,,2013-01-19 21:40:00,
2013-01-19 15:49:00,42.0,35.0,29.61,SW,233,5.0,11.0,75,0.00,,,0.00,,2013-01-19 21:49:00,
2013-01-19 16:00:00,42.0,34.0,29.60,South,186,3.0,11.0,74,0.00,,,0.00,,2013-01-19 22:00:00,
2013-01-19 16:25:00,41.0,34.0,29.61,WSW,238,4.0,10.0,75,0.00,,,0.00,,2013-01-19 22:25:00,
2013-01-19 16:34:00,41.0,33.0,29.61,SW,234,8.0,11.0,74,0.00,,,0.00,,2013-01-19 22:34:00,
2013-01-19 16:45:00,41.0,33.0,29.61,SW,234,8.0,11.0,74,0.00,,,0.00,,2013-01-19 22:45:00,
2013-01-19 17:11:00,41.0,33.0,29.61,WSW,244,4.0,11.0,73,0.00,,,0.00,,2013-01-19 23:11:00,
2013-01-19 17:25:00,41.0,33.0,29.61,WSW,237,5.0,11.0,74,0.00,,,0.00,,2013-01-19 23:25:00,
2013-01-19 17:34:00,41.0,33.0,29.61,SW,234,3.0,9.0,74,0.00,,,0.00,,2013-01-19 23:34:00,
2013-01-19 17:45:00,41.0,33.0,29.61,SW,234,3.0,9.0,74,0.00,,,0.00,,2013-01-19 23:45:00,
2013-01-19 18:07:00,40.0,32.0,29.61,SW,231,5.0,10.0,74,0.00,,,0.00,,2013-01-20 00:07:00,
2013-01-19 18:15:00,41.0,32.0,29.62,WNW,284,5.0,11.0,71,0.00,,,0.00,,2013-01-20 00:15:00,
2013-01-19 18:25:00,42.0,30.0,29.62,WSW,240,8.0,23.0,63,0.00,,,0.00,,2013-01-20 00:25:00,
2013-01-19 18:35:00,42.0,30.0,29.62,WSW,245,10.0,25.0,63,0.00,,,0.00,,2013-01-20 00:35:00,
2013-01-19 18:45:00,42.0,30.0,29.62,WSW,245,10.0,25.0,63,0.00,,,0.00,,2013-01-20 00:45:00,
2013-01-19 18:56:00,41.0,29.0,29.63,WNW,296,11.0,30.0,63,0.00,,,0.00,,2013-01-20 00:56:00,
2013-01-19 19:03:00,40.0,28.0,29.63,West,261,13.0,23.0,61,0.00,,,0.00,,2013-01-20 01:03:00,
2013-01-19 19:19:00,40.0,28.0,29.63,West,261,13.0,23.0,61,0.00,,,0.00,,2013-01-20 01:19:00,
2013-01-19 19:25:00,40.0,22.0,29.63,WSW,252,7.0,31.0,48,0.00,,,0.00,,2013-01-20 01:25:00,
2013-01-19 19:35:00,39.0,22.0,29.62,SW,219,9.0,24.0,50,0.00,,,0.00,,2013-01-20 01:35:00,
2013-01-19 19:45:00,39.0,22.0,29.62,SW,219,9.0,24.0,50,0.00,,,0.00,,2013-01-20 01:45:00,
2013-01-19 20:03:00,38.0,23.0,29.62,SSW,207,10.0,27.0,54,0.00,,,0.00,,2013-01-20 02:03:00,
2013-01-19 20:14:00,37.0,20.0,29.62,West,272,7.0,26.0,50,0.00,,,0.00,,2013-01-20 02:14:00,
2013-01-19 20:25:00,36.0,18.0,29.63,WSW,258,16.0,30.0,48,0.00,,,0.00,,2013-01-20 02:25:00,
2013-01-19 20:35:00,34.0,16.0,29.65,SW,228,13.0,32.0,47,0.00,,,0.00,,2013-01-20 02:35:00,
2013-01-19 20:44:00,34.0,16.0,29.65,SW,228,13.0,32.0,47,0.00,,,0.00,,2013-01-20 02:44:00,
2013-01-19 20:58:00,31.0,16.0,29.67,WNW,299,12.0,30.0,54,0.00,,,0.00,,2013-01-20 02:58:00,
2013-01-19 21:07:00,29.0,16.0,29.70,NW,311,12.0,27.0,58,0.00,,,0.00,,2013-01-20 03:07:00,
2013-01-19 21:14:00,29.0,16.0,29.70,NW,311,12.0,27.0,58,0.00,,,0.00,,2013-01-20 03:14:00,
2013-01-19 21:24:00,27.0,15.0,29.71,West,273,8.0,28.0,60,0.00,,,0.00,,2013-01-20 03:24:00,
2013-01-19 21:37:00,25.0,15.0,29.73,NW,309,13.0,29.0,65,0.00,,,0.00,,2013-01-20 03:37:00,
2013-01-19 21:45:00,25.0,15.0,29.73,NW,309,13.0,29.0,65,0.00,,,0.00,,2013-01-20 03:45:00,
2013-01-19 21:57:00,24.0,15.0,29.75,NW,308,10.0,26.0,67,0.00,,,0.00,,2013-01-20 03:57:00,
2013-01-19 22:04:00,22.0,13.0,29.77,West,277,14.0,25.0,67,0.00,,,0.00,,2013-01-20 04:04:00,
2013-01-19 22:14:00,22.0,13.0,29.77,West,277,14.0,25.0,67,0.00,,,0.00,,2013-01-20 04:14:00,
2013-01-19 22:25:00,21.0,11.0,29.79,WNW,302,15.0,28.0,66,0.00,,,0.00,,2013-01-20 04:25:00,
2013-01-19 22:34:00,19.0,9.0,29.80,West,276,11.0,29.0,64,0.00,,,0.00,,2013-01-20 04:34:00,
2013-01-19 22:44:00,19.0,9.0,29.80,West,276,11.0,29.0,64,0.00,,,0.00,,2013-01-20 04:44:00,
2013-01-19 22:57:00,18.0,9.0,29.82,West,279,12.0,27.0,66,0.00,,,0.00,,2013-01-20 04:57:00,
2013-01-19 23:03:00,16.0,5.0,29.85,WNW,298,10.0,21.0,61,0.00,,,0.00,,2013-01-20 05:03:00,
2013-01-19 23:12:00,16.0,5.0,29.85,WNW,298,10.0,21.0,61,0.00,,,0.00,,2013-01-20 05:12:00,
2013-01-19 23:22:00,15.0,4.0,29.86,WNW,302,10.0,22.0,60,0.00,,,0.00,,2013-01-20 05:22:00,
2013-01-19 23:32:00,14.0,4.0,29.88,NW,308,11.0,30.0,63,0.00,,,0.00,,2013-01-20 05:32:00,
2013-01-19 23:42:00,14.0,4.0,29.88,NW,308,11.0,30.0,63,0.00,,,0.00,,2013-01-20 05:42:00,
2013-01-19 23:53:00,14.0,3.0,29.89,West,265,12.0,29.0,62,0.00,,,0.00,,2013-01-20 05:53:00,